Weather History for KNGP - April, 2014

Change the Weather History Date:

Monday, April 28, 2014

  Actual Average Record
Temperature  
Mean Temperature 85 °F -  
Max Temperature 97 °F 79 °F 97 °F (2014)
Min Temperature 73 °F 66 °F 54 °F (1997)
Cooling Degree Days 20    
Growing Degree Days 35 (Base 50)    
Moisture  
Dew Point 71 °F    
Average Humidity 80    
Maximum Humidity 100    
Minimum Humidity 29    
Precipitation  
Precipitation 0.00 in - - ()
Sea Level Pressure  
Sea Level Pressure 29.59 in    
Wind  
Wind Speed 16 mph (SE)    
Max Wind Speed 25 mph    
Max Gust Speed 37 mph    
Visibility 5 miles    
Events Rain    
Averages and records for this station are not official NWS values.
T = Trace of Precipitation, MM = Missing Value Source: NWS Daily Summary

Daily Weather History Graph

Daily Weather History Graph

Search for Another Location

Airport or City:

Trip Planner

Search our weather history database for the weather conditions in past years. The results will help you decide how hot, cold, wet, or windy it might be!

Date:

Astronomy

Apr. 28, 2014 Rise Set
Actual Time 6:52 AM CDT 8:01 PM CDT
Civil Twilight 6:27 AM CDT 8:26 PM CDT
Nautical Twilight 5:58 AM CDT 8:55 PM CDT
Astronomical Twilight 5:28 AM CDT 9:25 PM CDT
Moon 6:26 AM CDT (4/28) 7:43 PM CDT (4/28)
Length of Visible Light 13h 58m
Length of Day
13h 09m
Waning Crescent, 0% of the Moon is Illuminated
Apr 28
Waning Crescent
Apr 29
New
May 6
First Quarter
May 14
Full
May 21
Last Quarter

Hourly Weather History & Observations

Time (CDT) Temp. Heat Index Dew Point Humidity Pressure Visibility Wind Dir Wind Speed Gust Speed Precip Events Conditions
12:36 AM 73.9 °F - 73.9 °F 100% 29.55 in 1.5 mi South 18.4 mph 34.5 mph N/A   Overcast
12:52 AM 73.4 °F - 73.4 °F 100% 29.56 in 1.2 mi South 25.3 mph 34.5 mph N/A   Overcast
12:56 AM 73.9 °F - 73.9 °F 100% 29.56 in 1.2 mi South 21.9 mph 34.5 mph N/A   Overcast
1:33 AM 73.9 °F - 73.9 °F 100% 29.55 in 1.5 mi South 21.9 mph 36.8 mph 0.00 in Rain Light Rain
1:56 AM 73.9 °F - 73.0 °F 97% 29.55 in 1.5 mi South 25.3 mph 33.4 mph 0.00 in   Overcast
2:11 AM 73.9 °F - 73.0 °F 97% 29.54 in 2.0 mi South 23.0 mph 33.4 mph N/A   Overcast
2:29 AM 73.9 °F - 73.0 °F 97% 29.54 in 3.0 mi South 20.7 mph 33.4 mph N/A   Overcast
2:53 AM 75.2 °F - 73.4 °F 94% 29.54 in 4.0 mi South 19.6 mph 31.1 mph N/A   Overcast
2:56 AM 75.0 °F - 73.0 °F 94% 29.53 in 4.0 mi South 18.4 mph 28.8 mph N/A   Overcast
3:46 AM 75.0 °F - 73.0 °F 94% 29.52 in 4.0 mi South 19.6 mph 28.8 mph N/A   Overcast
3:56 AM 75.0 °F - 73.0 °F 94% 29.52 in 4.0 mi South 16.1 mph 27.6 mph N/A   Overcast
4:12 AM 75.0 °F - 73.0 °F 94% 29.52 in 4.0 mi South 18.4 mph 26.5 mph N/A   Overcast
4:56 AM 75.0 °F - 73.0 °F 94% 29.53 in 5.0 mi South 17.3 mph 25.3 mph N/A   Overcast
5:56 AM 75.9 °F - 73.0 °F 91% 29.60 in 4.0 mi WNW 16.1 mph 23.0 mph N/A   Overcast
6:03 AM 75.9 °F - 73.9 °F 94% 29.60 in 4.0 mi NW 6.9 mph 24.2 mph N/A   Overcast
6:50 AM 77.0 °F - 73.4 °F 89% 29.62 in 3.0 mi Calm Calm - N/A   Mostly Cloudy
6:56 AM 77.0 °F - 73.0 °F 88% 29.63 in 3.0 mi NNW 4.6 mph - N/A   Mostly Cloudy
7:25 AM 77.0 °F - 73.9 °F 90% 29.64 in 3.0 mi North 6.9 mph - N/A   Mostly Cloudy
7:56 AM 78.1 °F - 73.9 °F 87% 29.65 in 4.0 mi NNE 11.5 mph - N/A   Scattered Clouds
8:56 AM 81.0 °F 85.8 °F 73.0 °F 77% 29.65 in 5.0 mi NE 11.5 mph - N/A   Haze
9:56 AM 82.9 °F 89.4 °F 73.9 °F 74% 29.65 in 4.0 mi East 4.6 mph - N/A   Haze
10:56 AM 86.0 °F 93.0 °F 73.0 °F 65% 29.67 in 6.0 mi NW 6.9 mph - N/A   Haze
11:56 AM 88.0 °F 94.7 °F 72.0 °F 59% 29.67 in 7.0 mi NW 6.9 mph - N/A   Clear
12:56 PM 91.9 °F 95.4 °F 66.9 °F 44% 29.66 in 7.0 mi North 6.9 mph - N/A   Clear
1:56 PM 97.0 °F 96.9 °F 60.1 °F 29% 29.64 in 10.0 mi North 11.5 mph - N/A   Clear
2:56 PM 93.9 °F 94.0 °F 61.0 °F 33% 29.62 in 10.0 mi East 6.9 mph - N/A   Clear
3:56 PM 90.0 °F 92.8 °F 66.9 °F 46% 29.61 in 8.0 mi ESE 13.8 mph - N/A   Clear
4:56 PM 90.0 °F 92.8 °F 66.9 °F 46% 29.59 in 8.0 mi ESE 17.3 mph - N/A   Clear
5:56 PM 84.9 °F 90.1 °F 71.1 °F 63% 29.59 in 6.0 mi ESE 16.1 mph - N/A   Haze
6:56 PM 82.0 °F 86.3 °F 71.1 °F 69% 29.59 in 6.0 mi SE 12.7 mph - N/A   Haze
7:56 PM 79.0 °F - 70.0 °F 74% 29.59 in 6.0 mi SSE 11.5 mph - N/A   Haze
8:56 PM 77.0 °F - 71.1 °F 82% 29.60 in 7.0 mi SE 10.4 mph - N/A   Clear
9:56 PM 78.1 °F - 70.0 °F 76% 29.61 in 7.0 mi ESE 13.8 mph - N/A   Clear
10:56 PM 78.1 °F - 70.0 °F 76% 29.62 in 8.0 mi SE 15.0 mph - N/A   Clear
11:56 PM 77.0 °F - 70.0 °F 79% 29.62 in 7.0 mi SSE 13.8 mph - N/A   Clear